Погода в Астане

Погода в Астане : погода сейчас, прогноз погоды и архив. Всё, что Вы хотите узнать о погоде в Астане!

Хотите узнать прогноз погоды Астана? Тогда Вам сюда: Погода Астана

Поиск расширенной информации на нашем сайте:

Другие новости

Новости СМИ2

Главная страница сайта

Новости сайта

02.10.2013

Напоминаем, что на нашем новом сайте вы можете получить высокодетализированные прогнозы погоды по пунктам России, СНГ и мира (включающие важные для авиации метеовеличины, такие как направление и скорость ветра, видимость, явления погоды, количество и форма облачности, нижняя и верхняя граница облачности), а также ознакомиться с разнообразными материалами по авиационной метеорологии и подборкой полезных ссылок на эту тему.

Сайт Метеоцентр.Азия посвящён разработке технологий оптимизации авиаметеорологического обслуживания, включая проектирование и перспективное создание нескольких автоматизированных авиаметеорологических систем:
- система выпуска высокодетальных прогностических карт явлений погоды для нижнего воздушного пространства по России и ближнему зарубежью;
- система верификации прогнозов TAF (выпускаемых синоптиками официальных АМСГ РФ и ближнего зарубежья) и AUTOTAF (выпускаемых сайтом Метеоцентр.Азия) - выявление ошибок, онлайн-сопоставление с фактической погодой METAR, автоматическое внесение коррективов в прогнозы при резком отклонении фактической погоды от прогноза, подсчёт оправдываемости прогнозов по элементам и в целом;
- система обработки, анализа и отображения авиаметеорологической информации для применения провайдерами метеорологической информации.


Погода в Астане - сегодня

Время (UTC), дата Ветер
(°,м/с) 
Видим.   Явления Облачность Т
(°С)
Тd
(°С)
f(%) Тe
(°С)
Pmin
(гПа)
dP
(гПа)
Po
(мм)
O2
(г/м3)
Тmin Tmax R s Состояние
почвы
00 22.05.17 200 (Ю) 10 км    10/0 средняя, верхняя 
[Ac und|Ci fib]
+14.7 +2.3 43 +15  1010.8  -0.1  728  278           
03 22.05.17 210 (ЮЗ) 10 км    10/0 средняя, верхняя 
[Ac trans|Cs]
+18.6 +3.6 37 +19  1010  -0.2  727  274           
06 22.05.17 200 (Ю) 10 км    8/0 средняя, верхняя 
[Ac cast|Cc]
+25.2 +0.7 20 +25  1008.2  -0.9  727  268  +14.3         
09 22.05.17 200 (Ю) 10 км    ясно 
+28.5 -0.6 15 +29  1006.1  -1.6  725  265           
12 22.05.17 200 (Ю) 10 км    10/0 верхняя 
[Ci]
+28.6 -0.5 15 +29  1004.2  -1.8  724  264           
15 22.05.17 180 (Ю) 10 км    10/0 средняя, верхняя 
[Ac cast|Cc]
+25.6 +1.7 21 +26  1004.1  -0.5  724  266    +29.7       
18 22.05.17 170 (Ю) н/о    10/0 верхняя 
[Ci]
+23.3 +2.2 25 +23  1003.2  -1.1  723  268    +29.7       
21 22.05.17 190 (Ю) н/о    10/0 верхняя 
[Ci fib]
+19.9 +1.4 29 +21  1001.1  -2.5  721  271           
00 23.05.17 170 (Ю) 10 км    10/0 верхняя 
[Cs]
+17.9 -0.9 28 +18  999.2  -2.1  719  272           
03 23.05.17 200 (Ю) 10 км    10/0 верхняя 
[Ci fib]
+22.2 +4.3 31 +22  997.8  -0.7  719  267           
06 23.05.17 210 (ЮЗ) 10 км  {ливн. осадки}  3/0 верхняя 
[Ci fib]
+24.3 +9.9 40 +26  997.7  0.2  719  264  +17.6         
09 23.05.17 230 (ЮЗ) 7{16}  10 км    4/4 1000 м 
[Cu med, cong]
+24 +8.8 38 +24  1000  2.2  721  265           
12 23.05.17 270 (З) 15-16{20}  10 км    10/8 1500 м средняя 
[Sc|Ac und]
+19.2 +10.5 57 +22  1004.2  3.4  723  270           
15 23.05.17 220 (ЮЗ) 5{16}  10 км    9/8 1500 м средняя 
[Sc|Ac As]
+20.6 +10.1 51 +23  1004.5  0.5  724  269    +25  0.0     
18 23.05.17 210 (ЮЗ) н/о    ясно 
+17.5 +11.3 67 +22  1006.7  1.7  725  272    +25  0.0     
21 23.05.17 260 (З) н/о    ясно 
+13.4 +10.6 83 +18  1009.2  1.8  726  277           
00 24.05.17 190 (Ю) 10 км    9/0 верхняя 
[Ci]
+12.3 +10.5 89 +16  1009.8  0.4  727  278           
03 24.05.17 200 (Ю) 4000 м  слаб. ливневой дождь  10/10 1000 м кучево-дожд. 
[Cb cap]
+14.2 +11.7 85 +18  1010.2  0.7  727  276      0.1     
06 24.05.17 290 (З) 10 км  {ливн. осадки}  8/0 кучево-дожд., средняя 
[Cb cap|Ac lent]
+13.6 +9.8 78 +15  1010.5  0.2  727  277  +11.9    0.1     
09 24.05.17 280 (З) 10 км    9/6 1000 м верхняя 
[Cu med, cong|Ci ing]
+17.9 +3.4 38 +18  1010.8  0.8  728  275           
12 24.05.17 290 (З) 10 км    3/3 1500 м 
[Cu hum]
+16.4 +2.1 38 +16  1012.6  1.5  729  277           
15 24.05.17 310 (СЗ) 10 км    ясно 
+11.6 +1.3 49 +12  1015.6  2.2  731  282    +18.4  0.3     
18 24.05.17 320 (СЗ) н/о    ясно 
+7.5 +0.5 61 +7  1018.1  1.8  732  287    +18.4  0.3     
21 24.05.17 290 (З) н/о    ясно 
+4.8 +0.7 75 +6  1019.6  733  290           
00 25.05.17 тихо ()   10 км    ясно 
+5 +1.7 79 +5  1019.9  0.4  733  290           
Время (UTC), дата Ветер
(°,м/с) 
Видим.   Явления Облачность Т
(°С)
Тd
(°С)
f(%) Тe
(°С)
Pmin
(гПа)
dP
(гПа)
Po
(мм)
O2
(г/м3)
Тmin Tmax R s Состояние
почвы

Для получения пояснительной информации подведите курсор к названию столбца.

ПОГОДА в Астане - архив

Всё, что Вы хотите узнать о погоде в Астане - удобно и подробно!

Выберите нужную дату (начиная с 1 января 2015* года) и нажмите кнопку "Найти".
Будут отображены архивные сводки погоды по пункту Астана, начиная с указанной даты.


Отображать данные в формате CSV (для использования в таблицах Excel)


Внимание! Наш архив погоды предназначен исключительно для личного некоммерческого использования в познавательных целях. Если Вам необходимы официальные справки о состоянии погоды (для производственных, юридических, коммерческих и т.п. целей), обращайтесь в органы Росгидромета.

*Примечание: данная дата относится к архиву по метеостанциям СССР (Россия, СНГ, Балтия).
Архив по метеостанциям Зарубежной Европы и Азии (кроме Китая) хранится 10 дней, по другим регионам земного шара (Китай, Африка, Америка, Австралия, Океания) - 1 день.

Астана - район местоположения метеостанции


Название, широта, долгота, высота метеостанции:
Астана (город) 51.1°ш. 71.4°д. 350 м над ур. моря [Казахстан]

Дополнительная информация

В oтличие oт бoльшинства пoгoдных сайтoв мы публикуем пoдрoбную метеoинфoрмацию в детальнoм прoфессиoнальнoм фoрмате.

Характеристики температуры и влажнoсти вoздуха измеряются на высoте 2 м в тени вдали oт зданий и деревьев.
Скoрoсть ветра измеряется на высoте 10 м (на урoвне рoста челoвека скoрoсть ветра ниже в 1.5-2 раза). Если метеoстанция нахoдится в гoрoде или в лесу, тo скoрoсть ветра занижена на 2-4 м/с пo сравнению с oткрытым местoм. Скoрoсть ветра над акватoриями крупных рек и oзёр, а также на вершинах хoлмoв на 2-5 м/с выше, чем в oбычных услoвиях.
Атмoсфернoе давление в разных тoчках местнoсти мoжет значительнo oтличаться oт давления на метеoстанции, в зависимoсти oт услoвий рельефа (при пoдъёме на 10 м давление пoнижается примернo на 1 мм рт.ст.).